Wind_Speed
5 6 10 4 4 5 3 3 4 5 3 0 0 2 3 3 3 3 7 14 6 19 22 30 27 25 23 20 18 16 15 14 12 11 10 9 8 7 7 8 10 8 8 6 6 4 2 2 4
5 7 1 2 4 4 4 3 4 4 4 1 0 0 1 2 2 5 7 9 10 20 20 28 29 27 23 21 19 17 16 14 13 12 11 10 10 8 8 8 10 11 7 7 4 1 1 2 3
6 5 3 3 3 3 2 1 2 3 3 2 2 1 1 3 4 10 5 8 12 17 18 22 28 26 25 23 20 18 17 16 14 14 13 13 12 11 10 11 11 11 8 5 3 2 2 2 1
5 5 4 4 2 1 3 3 3 2 2 2 2 4 3 2 4 6 7 7 15 15 16 16 27 26 23 23 22 21 19 17 16 15 14 13 12 11 8 11 8 7 7 6 4 4 4 3 3
2 3 3 2 4 3 3 3 2 2 1 4 4 3 5 3 9 8 7 8 14 15 15 16 23 27 25 24 22 21 19 19 18 18 15 15 15 11 9 10 9 9 7 6 6 6 5 3 2
4 3 4 1 4 1 2 3 2 4 3 1 2 2 2 6 6 7 6 7 11 15 18 16 18 24 26 25 25 23 21 19 17 17 17 17 17 17 10 9 10 10 9 7 8 6 5 3 5
2 3 3 3 4 3 2 1 3 1 5 2 0 2 2 2 7 7 6 6 9 13 16 19 20 22 23 25 25 24 23 21 19 18 19 19 19 19 13 9 11 10 10 10 9 7 6 7 8
3 3 2 3 3 2 3 1 3 1 5 1 1 2 3 6 12 9 7 9 10 12 18 17 18 21 24 27 25 24 24 23 21 20 20 21 19 19 15 11 12 11 11 11 10 8 8 8 7
3 4 2 3 5 2 4 4 4 4 3 2 5 5 6 5 10 7 7 8 11 14 16 19 20 22 22 28 29 28 26 25 23 23 22 25 23 22 18 12 13 13 12 11 10 9 10 9 8
4 3 5 1 1 3 5 2 3 4 8 8 5 5 8 4 9 11 10 13 14 17 20 22 21 23 22 22 32 31 30 29 27 26 25 26 26 24 19 15 14 16 15 14 12 12 11 10 10
4 5 2 5 4 1 2 7 4 5 3 10 9 6 10 3 7 11 14 18 19 18 21 23 23 23 24 23 25 28 29 29 27 26 26 27 26 23 21 18 17 18 19 18 16 15 13 12 10
3 7 4 5 5 4 3 3 9 5 10 10 10 9 5 8 9 14 16 20 16 15 18 22 24 23 26 26 26 25 27 28 30 28 28 29 28 25 23 21 20 22 22 21 19 15 14 12 10
4 3 4 6 9 7 5 6 5 12 14 11 12 10 8 7 10 21 23 19 14 12 12 13 21 26 26 28 28 26 27 28 30 31 29 30 31 29 26 24 23 22 23 23 21 18 17 15 14
2 3 6 7 12 5 6 4 2 10 7 9 7 8 9 15 16 21 28 28 25 22 23 9 14 22 27 28 28 29 25 24 26 29 33 31 31 30 29 29 27 25 25 24 23 22 20 18 16
2 4 8 10 5 6 6 4 6 11 8 8 3 8 13 13 20 21 21 22 22 21 21 20 7 13 25 28 26 27 26 23 22 24 26 32 32 29 30 32 29 27 26 26 25 23 21 20 19
3 1 2 6 4 3 3 7 8 11 7 17 7 8 10 13 18 22 24 26 25 21 21 18 16 3 15 24 24 23 24 21 23 20 23 26 30 30 31 32 29 27 26 27 28 27 25 23 22
2 3 6 7 2 3 3 6 10 9 8 9 8 11 10 11 18 24 29 30 28 26 25 23 20 18 7 8 12 14 15 19 15 15 19 21 24 26 28 29 26 25 27 28 28 27 26 26 23
5 4 4 4 4 3 4 9 8 12 13 4 10 9 11 13 15 22 29 30 31 29 26 26 27 21 15 11 7 5 3 8 11 13 14 16 17 21 23 23 24 26 28 29 29 28 26 26 23
2 3 4 5 9 2 8 6 9 10 12 8 8 10 11 12 14 23 26 28 29 32 31 30 28 26 24 21 15 13 12 9 1 1 7 8 11 15 21 23 23 27 31 32 31 28 27 24 21
6 5 6 5 5 1 7 9 9 13 6 8 13 9 10 9 11 17 21 27 32 31 31 30 29 28 26 24 19 15 11 13 14 11 6 4 3 11 16 21 23 25 28 30 32 32 30 28 27
4 5 4 8 5 3 3 7 8 3 12 13 9 11 10 11 11 8 16 24 28 30 30 30 29 27 24 21 17 15 14 14 13 15 12 9 7 6 9 18 21 24 26 30 32 34 33 32 33
4 5 5 5 2 4 3 6 6 4 7 5 7 8 8 10 9 9 12 19 23 24 26 29 32 32 29 25 24 23 23 20 18 15 12 10 9 10 12 8 17 20 22 27 31 32 35 31 31
8 3 2 2 2 3 3 1 7 9 4 6 6 7 8 8 8 8 12 17 18 21 22 25 28 30 30 31 29 27 25 20 17 16 13 13 11 7 8 11 12 13 19 21 26 30 33 37 33
5 2 3 4 3 2 7 7 5 5 8 6 6 8 9 7 7 10 15 16 17 16 20 22 26 26 27 28 28 28 29 27 27 25 23 20 15 12 10 9 9 11 15 20 21 25 30 35 40
3 5 2 1 0 6 5 2 8 4 5 9 12 8 8 6 7 7 10 14 16 18 19 21 24 26 25 25 26 26 25 24 25 25 25 26 25 23 20 15 13 11 12 15 19 21 24 29 35
5 6 4 5 3 4 5 5 4 4 11 14 9 8 7 6 6 6 9 12 13 15 16 17 20 23 21 23 23 24 25 24 24 24 23 24 24 24 24 23 18 15 14 14 16 19 22 24 29
4 4 2 3 1 2 4 5 2 5 7 9 9 7 6 6 6 6 9 10 9 9 10 12 16 16 16 18 20 21 20 21 21 20 20 20 21 22 22 24 24 23 21 18 16 17 20 23 26
2 5 2 2 2 4 5 5 5 5 7 6 8 8 6 5 6 6 8 9 8 7 8 9 12 14 14 15 16 17 17 16 16 17 21 20 20 22 23 24 24 23 23 22 20 20 20 22 24
2 2 3 3 4 4 2 5 3 6 8 9 7 7 8 7 6 6 8 11 11 9 8 8 9 11 12 13 14 15 16 18 18 20 22 25 25 27 28 26 26 26 24 23 23 23 23 21 22
5 5 4 3 5 3 4 8 4 8 7 9 8 9 10 9 8 8 11 10 11 10 8 7 6 5 7 9 11 14 15 19 20 23 24 26 28 28 28 29 29 29 28 27 27 26 25 25 24
Wind_Direction
335 333 325 348 54 64 332 55 130 35 32 148 312 91 213 205 212 206 141 181 178 184 181 189 189 186 182 182 183 183 184 182 178 173 168 160 155 151 153 155 151 156 142 129 111 92 89 67 99
335 347 30 69 82 69 301 145 82 171 183 81 290 356 10 44 115 127 142 179 194 184 186 194 195 194 192 190 190 190 190 191 185 179 167 164 160 162 150 158 165 159 164 140 127 118 110 109 101
339 324 73 96 117 132 187 74 96 21 108 103 13 352 214 159 124 148 153 169 175 190 192 200 198 201 197 195 194 195 192 192 189 182 179 179 178 175 167 160 161 168 184 180 179 193 171 204 243
340 15 16 85 248 184 99 24 58 20 45 64 130 320 332 30 131 139 145 160 165 188 196 198 200 202 202 200 197 196 197 193 190 196 193 191 183 185 181 180 175 203 200 195 217 219 240 251 246
284 71 48 6 287 153 83 97 49 299 314 190 162 297 302 38 128 133 143 154 170 185 197 201 204 203 205 206 206 206 204 199 196 195 204 196 196 187 186 175 184 193 198 202 219 226 247 249 198
10 92 52 359 302 149 83 103 21 350 351 325 44 23 290 142 155 143 142 162 174 187 202 207 205 207 207 208 209 210 210 208 209 205 209 205 191 201 191 182 177 195 205 195 198 222 229 186 151
101 77 220 294 285 359 152 225 87 21 338 306 252 319 311 196 159 161 163 179 187 203 211 211 213 210 216 213 215 214 213 214 216 213 214 210 199 214 215 217 186 192 192 192 204 219 205 166 151
93 91 296 277 250 309 191 145 151 36 272 176 35 264 257 226 187 183 186 188 201 211 218 221 220 219 218 217 216 219 220 222 222 219 217 212 209 218 229 251 190 197 194 187 201 205 182 164 151
46 60 260 276 14 296 330 30 351 333 313 340 216 207 275 259 187 203 207 210 202 212 223 223 230 223 228 222 216 217 219 223 223 223 216 211 213 219 229 242 200 198 197 194 199 193 181 166 159
97 119 234 133 357 323 320 49 306 350 320 287 294 280 298 232 213 226 230 236 223 221 223 229 230 229 231 225 219 221 223 222 221 223 220 217 218 221 229 237 217 206 203 203 195 193 182 174 169
183 192 219 301 348 329 295 319 319 4 277 262 276 263 302 222 247 238 251 244 241 246 232 228 232 230 228 226 224 224 224 223 221 224 222 219 221 225 229 230 222 210 210 209 202 200 187 186 186
199 233 246 280 315 314 282 298 312 235 250 257 270 266 278 289 298 294 265 261 264 252 249 238 233 229 226 227 226 227 226 222 215 217 220 221 222 228 235 234 224 216 214 214 214 208 198 198 198
226 258 291 304 291 278 303 271 248 282 273 276 288 313 312 300 342 29 39 34 12 341 293 244 233 229 227 222 222 227 229 227 223 218 220 224 226 229 233 233 231 223 219 219 217 210 206 205 206
346 320 281 270 265 252 228 266 68 279 300 312 9 346 10 60 43 40 29 20 20 13 17 303 243 236 230 223 222 223 229 229 230 229 225 226 234 233 232 226 227 227 224 222 222 217 213 210 211
349 341 315 270 254 227 151 327 236 252 302 287 8 317 69 59 45 42 34 29 19 15 10 17 327 241 231 226 224 222 225 229 230 234 235 232 229 236 235 228 227 228 226 223 223 218 216 214 211
290 129 315 283 122 270 88 257 249 276 319 294 354 23 84 58 51 41 36 33 26 25 27 23 16 284 227 224 223 223 224 226 232 241 245 232 235 235 237 228 228 233 228 224 221 218 215 214 212
288 221 203 308 232 136 153 251 270 285 289 302 347 102 77 62 49 38 35 34 35 32 35 43 49 45 58 210 216 222 222 228 231 238 244 244 238 234 230 231 232 229 223 222 223 223 224 214 210
223 220 264 235 251 165 213 249 272 291 293 22 96 79 73 62 48 40 40 38 35 39 43 49 52 57 63 59 85 91 121 213 239 245 248 249 240 230 227 229 230 226 222 222 225 230 223 222 214
270 266 273 271 275 297 266 229 252 260 286 102 99 98 86 72 62 49 43 43 43 45 45 45 50 53 58 56 48 42 44 41 325 228 258 254 252 236 237 236 227 227 226 227 229 228 225 222 212
232 236 260 273 267 203 281 285 264 257 279 148 136 116 103 90 64 49 41 44 46 45 48 51 53 54 56 57 60 59 55 46 39 36 36 22 299 242 240 241 238 231 228 225 225 226 222 223 206
221 219 236 229 312 288 341 306 263 14 84 92 86 101 94 97 87 63 55 53 53 51 54 55 56 57 58 60 63 61 66 50 37 27 16 349 347 331 247 246 248 244 236 232 233 233 227 216 210
267 213 236 242 119 233 75 286 255 200 121 92 104 98 99 93 81 77 61 55 56 56 60 63 62 61 61 62 63 63 56 47 39 39 28 10 352 319 308 290 253 256 253 240 240 240 233 225 217
223 133 166 229 238 33 278 254 266 112 168 153 127 107 98 100 102 93 75 65 60 56 59 62 64 62 62 64 63 60 57 48 39 30 23 34 36 13 333 312 301 281 266 263 253 247 239 232 231
142 78 9 61 101 314 237 169 275 186 187 148 141 125 116 108 95 87 79 69 63 58 57 62 63 61 60 63 65 64 60 51 43 34 28 19 15 17 17 343 318 322 286 271 268 255 252 248 241
93 82 291 3 146 222 183 168 238 3 81 144 134 119 113 106 97 91 78 66 56 50 49 53 58 58 57 58 61 63 63 60 53 45 37 31 25 18 5 344 329 334 317 303 287 274 263 256 251
167 184 174 232 229 257 346 266 274 78 87 103 107 125 120 109 107 102 92 81 66 55 51 51 56 59 58 60 61 62 60 59 55 48 41 35 28 23 19 14 6 347 327 307 298 291 281 273 267
198 197 164 116 64 52 226 284 96 85 101 124 127 107 122 129 113 104 91 82 80 81 74 69 64 63 58 57 55 55 53 49 43 37 34 27 20 17 13 14 16 13 2 343 317 305 299 290 281
181 154 92 29 191 238 274 254 234 188 176 153 148 151 158 124 111 116 120 127 120 108 95 76 61 56 52 50 47 40 37 36 29 18 14 8 6 5 4 2 2 3 2 358 346 327 309 300 292
151 227 218 177 169 201 214 252 146 144 174 170 157 160 152 152 160 165 153 153 145 120 97 83 58 41 39 39 38 27 18 9 3 359 353 349 348 349 350 348 347 346 345 345 342 336 328 316 304
193 228 199 215 255 247 243 251 108 120 122 131 159 175 183 180 179 174 174 155 142 126 114 89 96 74 42 29 26 17 7 357 350 345 342 340 338 338 338 337 335 332 332 330 327 324 323 318 311
Height
807 806 806 807 836 842 845 828 817 820 817 807 804 810 815 811 817 837 807 808 808 810 812 814 818 820 822 825 828 830 832 833 835 836 838 839 840 842 843 844 844 846 846 847 847 847 848 848 848
808 807 807 817 846 860 849 820 821 813 807 802 804 806 810 813 802 806 807 807 809 809 811 814 815 818 821 824 826 828 831 834 835 836 838 839 841 842 843 844 845 846 847 847 847 848 847 848 848
808 809 817 832 847 851 844 821 816 809 805 804 808 802 804 808 802 803 805 806 807 808 811 813 816 818 820 822 825 828 830 832 834 836 838 840 841 841 842 844 845 846 847 847 847 847 847 848 848
809 810 818 839 836 820 819 817 810 809 807 803 805 813 802 799 799 801 803 804 806 808 810 813 815 817 820 822 824 826 828 831 833 835 837 839 841 842 843 844 845 846 847 847 847 847 847 847 848
811 818 840 840 831 813 813 808 805 809 808 808 804 810 808 801 801 800 802 803 805 807 808 810 813 815 817 820 823 825 827 829 831 834 836 838 840 841 841 842 845 847 847 846 846 846 847 846 846
821 824 848 850 833 813 812 805 806 810 806 807 808 809 806 802 803 802 802 803 804 805 806 808 810 812 814 817 820 822 826 829 831 833 834 836 838 839 840 841 843 845 845 846 846 845 846 846 847
821 836 843 831 826 819 812 802 809 811 813 810 803 812 805 803 802 802 802 803 804 804 805 806 808 811 814 817 819 821 823 826 828 831 833 835 837 837 838 839 842 843 844 845 845 845 845 846 847
821 832 832 829 832 821 809 804 802 806 811 802 802 815 811 797 798 799 800 801 803 804 804 805 807 809 811 813 816 819 821 823 825 828 830 833 836 837 837 839 841 842 843 844 844 844 844 845 847
815 844 849 830 825 821 808 811 804 801 805 804 800 800 797 799 799 799 799 799 800 802 803 804 804 806 808 810 813 816 818 821 823 825 827 829 832 833 835 837 839 841 843 843 843 843 843 845 846
829 848 833 818 817 819 814 814 813 809 812 806 803 796 796 796 797 797 797 796 796 796 797 798 800 801 804 806 809 812 815 817 820 822 825 827 828 830 833 835 836 838 840 841 841 842 843 844 846
822 837 820 813 811 811 812 814 808 814 815 804 803 797 793 794 794 793 792 790 788 789 791 793 795 797 799 801 803 807 810 812 816 819 822 824 827 828 830 831 832 834 836 838 840 840 841 843 844
824 818 815 814 811 812 813 809 814 811 806 798 795 793 793 792 790 787 785 783 785 785 785 787 790 793 795 797 800 802 805 808 811 815 818 821 823 826 827 829 830 831 833 835 837 839 840 842 843
819 817 813 812 812 812 810 813 813 808 796 795 792 791 792 790 790 791 788 786 785 787 786 783 784 786 789 793 797 800 802 805 808 812 815 817 819 822 824 826 828 830 831 833 834 836 838 840 842
819 819 818 813 808 809 811 810 808 801 794 794 794 793 793 797 797 793 791 792 788 788 784 782 783 783 785 787 791 796 799 802 805 809 812 815 817 819 821 822 824 827 829 831 832 834 837 838 840
816 823 820 808 806 807 805 816 814 797 794 791 792 792 802 803 801 801 801 797 794 790 788 784 781 782 783 785 788 792 797 800 803 805 809 812 814 817 819 820 822 823 825 828 830 832 834 835 837
821 824 833 807 802 804 805 825 804 793 796 789 793 797 803 807 807 806 803 799 796 791 787 786 784 782 782 784 787 789 793 796 799 802 806 808 811 813 815 818 820 822 824 826 827 828 830 832 833
830 838 832 819 801 807 810 821 802 791 794 796 798 806 809 811 809 807 805 802 798 795 791 786 784 784 785 786 788 791 793 795 798 800 803 805 807 809 812 815 819 821 823 825 827 829 830 830 831
835 835 825 824 808 808 814 817 807 796 789 793 807 812 813 813 814 811 807 805 803 798 795 791 788 787 787 790 790 792 794 796 797 799 801 803 806 808 810 812 816 818 821 823 826 828 830 830 832
819 822 826 818 805 807 809 812 805 796 791 799 808 811 815 816 819 815 812 810 806 803 799 796 793 792 791 791 792 794 796 799 799 800 802 803 804 807 809 810 812 813 814 817 822 825 828 830 833
822 824 827 816 804 804 807 810 803 791 789 795 804 810 814 817 817 818 818 814 810 807 804 802 799 797 796 797 797 799 799 801 803 803 804 805 805 806 807 808 809 811 813 816 817 818 821 825 828
816 821 821 822 810 807 809 818 803 793 802 803 810 810 813 814 817 820 819 817 816 812 809 808 806 803 800 799 799 802 801 801 802 804 805 806 807 808 808 808 808 809 809 811 814 815 816 818 821
822 809 812 815 819 831 811 834 804 793 806 811 814 815 817 818 821 823 823 821 819 818 816 812 809 805 803 803 802 802 806 809 810 809 808 807 807 808 810 809 808 808 808 809 810 812 814 816 817
814 806 808 810 820 825 823 835 813 800 809 814 818 820 820 821 821 823 824 825 825 823 821 818 813 810 808 806 805 806 807 811 812 812 811 808 807 808 810 810 807 806 806 807 809 810 810 811 813
806 810 814 821 830 846 823 823 809 801 796 811 817 819 822 824 826 827 827 827 828 829 826 821 818 816 814 811 810 809 810 812 813 813 812 813 811 809 808 810 807 804 803 803 804 805 806 807 807
808 819 835 844 853 834 812 817 797 794 791 802 814 821 825 828 828 829 829 830 832 832 831 827 822 819 817 818 817 815 815 815 817 818 819 817 814 812 811 809 806 801 801 801 801 801 801 802 801
813 813 826 830 841 830 815 816 791 809 805 808 818 824 825 828 831 831 832 830 832 832 833 833 829 824 827 823 823 820 820 820 820 820 820 821 819 817 815 812 805 799 798 798 798 797 796 796 796
807 813 808 823 858 843 813 805 809 812 813 814 819 826 830 829 829 831 832 834 835 837 837 835 832 833 831 829 826 823 823 821 822 824 822 823 822 818 816 811 803 801 798 797 796 794 792 791 791
801 805 820 830 847 855 819 810 807 808 812 819 824 827 831 830 832 832 833 833 836 836 837 836 835 835 833 829 828 829 828 825 825 825 823 824 822 818 814 809 806 801 798 797 795 792 790 787 785
805 809 808 812 825 837 844 813 796 798 804 813 821 825 829 830 828 828 829 831 834 834 834 834 834 837 836 832 829 828 829 829 825 823 823 823 818 814 810 808 804 802 798 795 793 791 788 783 780
801 804 806 812 819 825 806 806 806 812 809 813 821 821 820 820 822 824 828 830 831 831 832 833 831 836 834 831 828 828 829 827 826 824 821 818 815 813 809 806 802 800 796 793 792 788 785 782 776